User: anonymous   Login
Location: Newark
(40.3417°N, 75.9264°W)
Time: 09:10:54
(UTC+00:00)
Language:

FALCONSAT 3 - Orbit

View from above orbital plane
View from above orbital plane
View from above satellite
View from above satellite

Ground track
Ground track

The orbit data is extracted from the following two-line orbital elements,

1 30776U 07006E   20157.67249531 +.00002454 +00000-0 +65940-4 0  9991
2 30776 035.4353 355.3847 0001484 062.1012 297.9866 15.37770000735026
Epoch (UTC): 05 June 2020 16:08:23
Eccentricity: 0.0001484
inclination: 35.4353°
perigee height: 451 km
apogee height: 454 km
right ascension of ascending node: 355.3847°
argument of perigee: 62.1012°
revolutions per day: 15.37770000
mean anomaly at epoch: 297.9866°
orbit number at epoch: 73502

The dashed part of the orbit path shows where the satellite is in the earth's shadow,  

DLR